K5LUO Weather Reports


time (UTC)temp
C
wind
direction
speed
KPH
gust
KPH
rain 1hr
cm
rain 24hr
cm
rain mn
cm
humidity
%
barometer
mb
20260906201530 37 152 1.6 17.7 0.00 0.00 0.00 38 1010.4
20260906200029 37 189 4.8 16.1 0.00 0.00 0.00 39 1010.7
20260906194528 37 181 6.4 9.7 0.00 0.00 0.00 39 1010.8
20260906193028 37 181 3.2 12.9 0.00 0.00 0.00 38 1011.1
20260906191527 37 152 8.0 16.1 0.00 0.00 0.00 38 1011.2
20260906190024 38 171 8.0 16.1 0.00 0.00 0.00 39 1011.4
20260906184520 37 209 6.4 12.9 0.00 0.00 0.00 40 1011.4
20260906183023 37 167 4.8 16.1 0.00 0.00 0.00 40 1011.7
20260906181512 36 86 1.6 19.3 0.00 0.00 0.00 42 1012.1
20260906180010 36 116 8.0 17.7 0.00 0.00 0.00 41 1012.3
20260906174511 36 111 3.2 14.5 0.00 0.00 0.00 44 1012.6
20260906173005 36 237 3.2 9.7 0.00 0.00 0.00 44 1012.7
20260906171605 35 237 3.2 12.9 0.00 0.00 0.00 47 1013.0
20260906170058 35 242 8.0 12.9 0.00 0.00 0.00 47 1013.3
20260906164555 35 231 6.4 9.7 0.00 0.00 0.00 47 1013.3
20260906163108 34 223 4.8 8.0 0.00 0.00 0.00 49 1013.4
20260906161544 34 223 1.6 8.0 0.00 0.00 0.00 50 1013.4
20260906160041 33 223 0.0 6.4 0.00 0.00 0.00 52 1013.4
20260906154536 33 223 1.6 9.7 0.00 0.00 0.00 53 1013.5
20260906153038 32 223 8.0 11.3 0.00 0.00 0.00 55 1013.3
20260906151531 32 223 9.7 14.5 0.00 0.00 0.00 57 1013.3
20260906150024 31 220 4.8 14.5 0.00 0.00 0.00 61 1013.3
20260906144520 30 215 8.0 14.5 0.00 0.00 0.00 63 1013.4
20260906143015 29 203 3.2 11.3 0.00 0.00 0.00 64 1013.5
20260906141513 28 202 6.4 14.5 0.00 0.00 0.00 65 1013.3
20260906140009 27 200 6.4 11.3 0.00 0.00 0.00 67 1013.3
20260906134502 27 198 8.0 14.5 0.00 0.00 0.00 68 1013.3
20260906133122 27 196 3.2 9.7 0.00 0.00 0.00 69 1013.1
20260906131612 26 196 0.0 8.0 0.00 0.00 0.00 70 1013.1
20260906130100 26 196 1.6 8.0 0.00 0.00 0.00 71 1012.9
20260906124548 26 196 3.2 9.7 0.00 0.00 0.00 71 1012.7
20260906123048 25 196 1.6 8.0 0.00 0.00 0.00 72 1012.4
20260906121541 25 196 4.8 11.3 0.00 0.00 0.00 72 1012.4
20260906120039 25 196 0.0 0.0 0.00 0.00 0.00 72 1012.2
20260906114538 25 196 0.0 0.0 0.00 0.00 0.00 72 1012.2
20260906113039 25 196 0.0 3.2 0.00 0.00 0.00 72 1012.2
20260906111536 25 196 1.6 4.8 0.00 0.00 0.00 71 1011.9
20260906110033 25 196 1.6 8.0 0.00 0.00 0.00 71 1011.8
20260906104531 26 196 4.8 9.7 0.00 0.00 0.00 70 1011.7
20260906103028 26 196 4.8 8.0 0.00 0.00 0.00 68 1011.7
20260906101526 26 196 3.2 8.0 0.00 0.00 0.00 67 1011.5
20260906100025 26 196 3.2 8.0 0.00 0.00 0.00 66 1011.5
20260906094526 27 196 4.8 11.3 0.00 0.00 0.00 65 1011.4
20260906093030 27 196 8.0 12.9 0.00 0.00 0.00 65 1011.4
20260906091519 27 196 8.0 12.9 0.00 0.00 0.00 64 1011.3
20260906090017 27 136 6.4 9.7 0.00 0.00 0.00 64 1011.3
20260906084517 27 134 3.2 8.0 0.00 0.00 0.00 64 1011.2
20260906083017 27 134 3.2 8.0 0.00 0.00 0.00 63 1011.0
20260906081520 27 134 1.6 4.8 0.00 0.00 0.00 63 1011.0
20260906080014 27 134 1.6 8.0 0.00 0.00 0.00 62 1011.2
20260906074512 28 134 1.6 8.0 0.00 0.00 0.00 61 1011.2
20260906073009 28 134 1.6 9.7 0.00 0.00 0.00 61 1011.1
20260906071507 28 134 3.2 8.0 0.00 0.00 0.00 60 1011.0
20260906070006 28 134 1.6 4.8 0.00 0.00 0.00 60 1011.0
20260906064509 28 134 1.6 6.4 0.00 0.00 0.00 60 1011.2
20260906063005 28 134 0.0 6.4 0.00 0.00 0.00 59 1011.1
20260906061504 28 134 1.6 3.2 0.00 0.00 0.00 59 1011.1
20260906060003 28 134 0.0 0.0 0.00 0.00 0.00 58 1011.2
20260906054601 28 134 0.0 0.0 0.00 0.00 0.00 58 1011.1
20260906053058 29 134 0.0 6.4 0.00 0.00 0.00 58 1011.0
20260906051559 29 134 1.6 4.8 0.00 0.00 0.00 57 1011.0
20260906050156 30 134 1.6 6.4 0.00 0.00 0.00 56 1010.9
20260906044553 30 134 0.0 3.2 0.00 0.00 0.00 55 1011.1
20260906043054 30 134 1.6 6.4 0.00 0.00 0.00 55 1011.0
20260906041552 30 134 3.2 8.0 0.00 0.00 0.00 54 1011.0
20260906040052 31 134 0.0 3.2 0.00 0.00 0.00 52 1011.2
20260906034554 31 134 1.6 8.0 0.00 0.00 0.00 51 1011.1
20260906033054 31 134 4.8 8.0 0.00 0.00 0.00 50 1011.0
20260906031552 32 134 3.2 16.1 0.00 0.00 0.00 49 1011.0
20260906030053 32 149 3.2 6.4 0.00 0.00 0.00 47 1011.0
20260906024549 32 148 0.0 3.2 0.00 0.00 0.00 46 1010.7
20260906023049 33 149 0.0 0.0 0.00 0.00 0.00 46 1010.8
20260906021556 33 149 0.0 0.0 0.00 0.00 0.00 45 1010.5
20260906020048 33 148 0.0 0.0 0.00 0.00 0.00 45 1010.4
20260906014549 33 149 0.0 1.6 0.00 0.00 0.00 44 1010.1
20260906013046 34 149 0.0 0.0 0.00 0.00 0.00 43 1010.0
20260906011559 35 148 0.0 6.4 0.00 0.00 0.00 42 1009.8
20260906010045 35 149 0.0 3.2 0.00 0.00 0.00 41 1009.5
20260906004545 36 148 1.6 8.0 0.00 0.00 0.00 40 1009.4
20260906003046 36 149 3.2 8.0 0.00 0.00 0.00 39 1009.4
20260906001543 36 148 4.8 11.3 0.00 0.00 0.00 38 1009.3
20260906000043 36 149 4.8 11.3 0.00 0.00 0.00 37 1009.2
20260905234542 37 148 3.2 14.5 0.00 0.00 0.00 37 1008.9
20260905233102 37 150 6.4 14.5 0.00 0.00 0.00 37 1008.9
20260905231551 37 159 8.0 16.1 0.00 0.00 0.00 37 1009.1
20260905230046 37 148 9.7 16.1 0.00 0.00 0.00 36 1009.0
20260905224559 37 132 9.7 17.7 0.00 0.00 0.00 36 1008.9
20260905223039 37 126 6.4 14.5 0.00 0.00 0.00 37 1008.9
20260905221541 37 213 3.2 17.7 0.00 0.00 0.00 37 1009.0
20260905220040 37 108 6.4 20.9 0.00 0.00 0.00 38 1009.2
20260905214533 37 103 4.8 16.1 0.00 0.00 0.00 37 1009.3
20260905213034 37 175 11.3 24.1 0.00 0.00 0.00 37 1009.5
20260905211531 37 188 11.3 17.7 0.00 0.00 0.00 38 1009.7
20260905210029 37 107 11.3 20.9 0.00 0.00 0.00 39 1010.0
20260905204520 37 188 8.0 19.3 0.00 0.00 0.00 39 1010.2
20260905203015 36 169 3.2 16.1 0.00 0.00 0.00 40 1010.3